{"data":{"norad_id":51641,"epoch":"2026-05-25T02:46:36.427296Z","epoch_age_seconds":64759,"freshness":"FRESH","line1":"1 51641U 22012V   26145.11569939 -.00000593  00000+0 -17344-2 0  9994","line2":"2 51641  87.8848  40.8740 0001878  77.5789 282.5548 13.10370483206273","mean_motion":13.10370483,"eccentricity":0.0001878,"inclination_deg":87.8848,"raan_deg":40.874,"arg_perigee_deg":77.5789,"mean_anomaly_deg":282.5548,"bstar":-0.0017344,"rev_number":20627,"period_min":109.89258524072,"perigee_km":1220.2989209205,"apogee_km":1223.1534295291,"semimajor_km":7599.8631752248,"source":"CELESTRAK","updated_at":"2026-05-25T13:38:22.580201Z"}}